星链-4412 (STARLINK-4412 )

导读 | 星芒AI

STARLINK-4412 是 SpaceX Starlink 卫星互联网项目中的一个卫星编号。该卫星属于 Starlink 群体中的一颗低轨道(LEO)卫星,旨在为全球用户提供高速互联网服务。它由 SpaceX 设计和发射,采用先进推进系统和激光通信技术,以提高网络效率和减少延迟。STARLINK-4412 的运行有助于扩大 Starlink 在偏远和网络基础设施不足地区的覆盖范围,推动全球互联网接入的普及。

基本信息
目录编号:
53477
目录名称:
STARLINK-4412
国际标识:
2022-099N
轨道中心:
EARTH
卫星名称:
星链-4412
卫星全名:
星链-4412 (STARLINK-4412 )
卫星状态:
在轨 (已飞行1227 天)
发射日期:
2022-08-12 UTC
国别 :
美国 (US)
星等 :
--
轨道信息
数据来源 国际轨道数据
星历时间: 2025-12-21T05:01:34+0800
9小时前
查看轨道信息
半长轴: 6941.173km
偏心率: 0.0002707
轨道倾角: 97.604°
近地点辐角 73.174°
升交点赤经 113.019°
平近点角 286.978°
近地点: 561.157km
远地点: 564.915km
周期: 95.920分钟
每日圈数: 15.012516
详细信息
固有亮度:
5
最大亮度:
2.5
卫星平台:
Starlink v1.5
覆盖范围:
全球
运营商:
太空探索技术公司
运营商所在国:
美国
制造商(研发单位):
太空探索技术公司
制造商所在国:
美国
使用方式:
暂无
卫星简介
星链(Starlink)计划是由太空探索技术公司(SpaceX)提出的一个巨型低轨卫星互联网星座项目,计划在2019年至2024年间在太空搭建由约1.2万颗卫星组成的“星链”网络,其中1584颗将部署在地球上空550千米处的近地轨道,并从2020年开始工作。该卫星仍在工作。
2D轨道图
3D轨道图
轨道高度分析图
轨道倾角分析图
轨道综合分析图
查看轨道综合分析图